DW2248 Weather Reports


time (UTC)temp
F
wind
direction
speed
knots
gust
knots
rain 1hr
in
rain 24hr
in
rain mn
in
humidity
%
barometer
mb
20260502162305 69 84 0.0 0.0 0.00 0.00 0.00 73 1014.3
20260502160805 69 303 0.0 0.0 0.00 0.00 0.00 72 1014.4
20260502152305 69 84 0.0 0.0 0.00 0.00 0.00 73 1015.0
20260502122306 79 192 0.0 0.0 0.00 0.00 0.00 40 1016.6
20260502120804 79 254 0.0 0.0 0.00 0.00 0.00 37 1017.0
20260502115306 78 322 0.0 0.0 0.00 0.00 0.00 40 1017.1
20260502113803 77 224 0.0 0.0 0.00 0.00 0.00 41 1017.3
20260502112305 78 257 0.0 0.9 0.00 0.00 0.00 40 1017.7
20260502110803 77 231 0.0 0.0 0.00 0.00 0.00 40 1017.9
20260502105306 76 243 0.0 0.9 0.00 0.00 0.00 42 1018.0
20260502103803 74 195 0.0 0.0 0.00 0.00 0.00 45 1018.3
20260502102306 73 224 0.0 0.0 0.00 0.00 0.00 46 1018.4
20260502100802 72 195 0.0 0.0 0.00 0.00 0.00 46 1018.4
20260502090802 68 197 0.0 0.9 0.00 0.00 0.00 50 1019.0
20260502065306 58 84 0.0 0.0 0.00 0.00 0.00 64 1019.4
20260502063806 57 84 0.0 0.0 0.00 0.00 0.00 65 1019.4
20260502062306 56 84 0.0 0.0 0.00 0.00 0.00 65 1019.4
20260502060805 55 84 0.0 0.0 0.00 0.00 0.00 69 1019.4
20260502055306 53 84 0.0 0.0 0.00 0.00 0.00 72 1019.4
20260502053805 52 84 0.0 0.0 0.00 0.00 0.00 72 1019.4
20260502052306 51 84 0.0 0.0 0.00 0.00 0.00 72 1019.6
20260502045306 50 84 0.0 0.0 0.00 0.00 0.00 73 1019.4
20260502043804 50 84 0.0 0.0 0.00 0.00 0.00 73 1019.4
20260502042306 50 84 0.0 0.0 0.00 0.00 0.00 73 1019.4
20260502040804 50 84 0.0 0.0 0.00 0.00 0.00 72 1019.4
20260502033804 51 84 0.0 0.0 0.00 0.00 0.00 70 1019.6
20260502032306 51 84 0.0 0.0 0.00 0.00 0.00 69 1019.6
20260502030804 52 84 0.0 0.0 0.00 0.00 0.00 68 1019.7
20260502025306 52 84 0.0 0.0 0.00 0.00 0.00 67 1019.8
20260502023803 52 84 0.0 0.0 0.00 0.00 0.00 67 1019.9
20260502020803 53 84 0.0 0.0 0.00 0.00 0.00 66 1020.0
20260502015305 53 84 0.0 0.0 0.00 0.00 0.00 66 1020.0
20260502013803 53 84 0.0 0.0 0.00 0.00 0.00 65 1020.2
20260502012306 53 84 0.0 0.0 0.00 0.00 0.00 65 1020.3
20260502002305 55 84 0.0 0.0 0.00 0.00 0.00 61 1020.9
20260501235305 56 84 0.0 0.0 0.00 0.00 0.00 58 1021.1
20260501233801 56 84 0.0 0.0 0.00 0.00 0.00 56 1021.2
20260501225301 57 84 0.0 0.0 0.00 0.00 0.00 56 1021.3
20260501223801 58 84 0.0 0.0 0.00 0.00 0.00 52 1021.3
20260501222301 59 84 0.0 0.0 0.00 0.00 0.00 50 1021.4
20260501220801 60 84 0.0 0.0 0.00 0.00 0.00 50 1021.4
20260501213800 61 84 0.0 0.0 0.00 0.00 0.00 45 1021.5
20260501212300 61 84 0.0 0.0 0.00 0.00 0.00 44 1021.5
20260501210800 62 84 0.0 0.0 0.00 0.00 0.00 43 1021.5
20260501205306 62 84 0.0 0.0 0.00 0.00 0.00 45 1021.5
20260501203805 63 84 0.0 0.0 0.00 0.00 0.00 44 1021.5
20260501202306 64 84 0.0 0.0 0.00 0.00 0.00 40 1021.6
20260501200807 65 84 0.0 0.0 0.00 0.00 0.00 37 1021.6
20260501195306 65 84 0.0 0.0 0.00 0.00 0.00 36 1021.6
20260501193804 66 84 0.0 0.0 0.00 0.00 0.00 35 1021.4
20260501192306 67 84 0.0 0.0 0.00 0.00 0.00 33 1021.4
20260501190804 68 84 0.0 0.0 0.00 0.00 0.00 32 1021.3
20260501185306 69 84 0.0 0.0 0.00 0.00 0.00 31 1021.3
20260501183804 70 84 0.0 0.0 0.00 0.00 0.00 31 1021.3
20260501182306 71 84 0.0 0.0 0.00 0.00 0.00 29 1021.3
20260501180804 72 84 0.0 0.0 0.00 0.00 0.00 28 1021.4
20260501175306 73 84 0.0 0.9 0.00 0.00 0.00 27 1021.2
20260501173804 73 200 0.0 0.9 0.00 0.00 0.00 26 1021.2
20260501170804 74 199 0.0 0.0 0.00 0.00 0.00 25 1021.2
20260501163803 75 215 0.9 10.4 0.00 0.00 0.00 23 1021.3